#timestamp,LO_Frequency,Hit,StdDev 
1575957615.2,286047000.3,N
1575957635.0,286047000.3,N
1575957635.9,286047000.3,N
1575957655.8,286047002.7,N
1575957675.6,286047003.1,N
1575957695.4,286047001.9,N
1575957715.3,286047002.4,N
1575957735.1,286047002.5,N
1575957755.9,286047004.4,N
1575957775.7,286047004.3,N
1575957795.5,286047004.0,N
1575957815.4,286047002.7,N
1575957835.2,286047002.2,N
1575957855.0,286047003.5,N
1575957855.9,286047003.5,N
1575957875.8,286047002.6,N
1575957895.6,286046999.8,N
1575957915.5,286047000.2,N
1575957935.3,286047001.7,N
1575957955.1,286047001.9,N
1575957975.9,286047000.2,N
1575957995.7,286047000.7,N
1575958015.5,286046999.4,N
1575958035.4,286046999.0,N
1575958055.2,286046996.6,N
1575958075.0,286046998.4,N
1575958076.0,286046998.4,N
1575958095.8,286047000.7,N
1575958115.6,286047000.1,N
1575958135.5,286047000.8,N
1575958155.3,286047002.1,N
1575958175.1,286047002.7,N
1575958195.9,286047000.1,N
1575958215.7,286047002.5,N
1575958235.6,286047001.7,N
1575958255.4,286047004.0,N
1575958275.2,286047002.4,N
1575958295.1,286047001.8,N
1575958296.0,286047001.8,N
1575958315.8,286047001.6,N
1575958335.6,286047002.8,N
1575958355.5,286047002.7,N
1575958375.3,286047002.4,N
1575958395.1,286047000.3,N
1575958415.9,286047000.2,N
1575958435.7,286046999.8,N
1575958455.6,286047001.1,N
1575958475.4,286046998.7,N
1575958495.2,286047002.0,N
1575958515.1,286047001.8,N
1575958516.0,286047001.8,N
1575958535.8,286047002.2,N
1575958555.7,286047002.3,N
1575958575.5,286047002.6,N
1575958595.3,286047001.7,N
1575958615.2,286047003.1,N
1575958635.9,286047006.0,Y
1575958655.7,286047003.9,P
1575958675.6,286047003.9,P
1575958695.4,286047003.0,N
1575958715.3,286047003.3,Y
1575958735.1,286047001.5,P
1575958736.0,286047001.5,N
1575958755.8,286047001.9,N
1575958775.7,286047004.0,Y
1575958795.5,286047002.5,P
1575958815.3,286047002.1,P
1575958835.2,286047002.2,P
1575958855.0,286047004.0,Y
1575958855.9,286047004.0,P
1575958875.8,286047000.5,N
1575958895.6,286047000.4,N
1575958915.4,286047002.2,N
1575958935.3,286047001.4,N
1575958955.1,286047002.9,N
1575958975.9,286047006.0,Y
1575958995.7,286047004.3,P
1575959015.5,286047003.9,P
1575959035.4,286047004.2,P
1575959055.2,286047003.6,Y
1575959075.0,286046998.8,P
1575959075.9,286046998.8,N
1575959095.8,286047000.0,N
1575959115.6,286047000.4,N
1575959135.5,286047000.1,N
1575959155.3,286047002.1,N
1575959175.1,286047003.5,N
1575959195.9,286047003.8,N
1575959215.7,286047003.8,N
1575959235.5,286047003.4,N
1575959255.4,286047005.5,N
1575959275.2,286047005.6,N
1575959295.1,286047005.2,N
1575959296.0,286047005.2,N
1575959315.8,286047004.9,N
1575959335.6,286047005.3,N
1575959355.5,286047005.6,N
1575959375.3,286047005.9,N
1575959395.1,286047003.0,N
1575959415.9,286047003.7,N
1575959435.7,286047005.3,N
1575959455.6,286047004.2,N
1575959475.4,286047003.3,N
1575959495.2,286047005.5,N
1575959515.1,286047007.6,Y
1575959516.0,286047007.6,P
1575959535.8,286047001.9,N
1575959555.7,286047002.0,N
1575959575.5,286047004.3,N
1575959595.3,286047003.1,N
1575959615.2,286047003.0,N
1575959635.0,286047003.2,N
1575959635.9,286047003.2,N
1575959655.7,286047004.6,N
1575959675.6,286047004.8,Y
1575959695.4,286047001.3,P
1575959715.3,286047001.4,N
1575959735.1,286047002.2,N
1575959755.8,286047001.8,N
1575959775.7,286047002.9,Y
1575959795.5,286047002.7,P
1575959815.4,286047000.0,N
1575959835.2,286047000.4,N
1575959855.0,286046998.9,N
1575959855.9,286046998.9,N
1575959875.8,286046999.4,N
1575959895.6,286047000.9,N
1575959915.5,286047000.6,N
1575959935.3,286047002.7,N
1575959955.1,286047001.6,N
1575959975.9,286047002.6,N
1575959995.7,286047001.9,N
1575960015.5,286047003.8,N
1575960035.4,286047003.5,N
1575960055.2,286047003.1,N
1575960075.1,286047003.2,N
1575960076.0,286047003.2,N
1575960095.8,286047004.1,N
1575960115.6,286047001.7,N
1575960135.5,286047003.4,N
1575960155.3,286047003.1,N
1575960175.1,286047003.6,N
1575960195.9,286047005.7,Y
1575960215.7,286047001.4,P
1575960235.6,286047002.5,P
1575960255.4,286047001.6,P
1575960275.2,286047002.0,Y
1575960295.1,286047000.4,P
1575960296.0,286047000.4,N
1575960315.8,286047000.9,N
1575960335.6,286046998.2,Y
1575960355.5,286046998.6,P
1575960375.3,286047002.4,N
1575960395.2,286047002.2,N
1575960415.9,286047002.2,N
1575960435.7,286047001.8,N
1575960455.6,286047003.9,N
1575960475.4,286047003.6,N
1575960495.2,286047001.9,N
1575960515.1,286047002.5,N
1575960516.0,286047002.5,N
1575960535.8,286047002.7,N
1575960555.7,286047002.4,N
1575960575.5,286047001.5,N
1575960595.3,286047001.7,N
1575960615.2,286047003.4,N
1575960635.0,286047005.5,Y
1575960635.9,286047005.5,P
1575960655.7,286047001.6,N
1575960675.6,286047004.4,N
1575960695.4,286047004.0,N
1575960715.3,286047004.3,N
1575960735.1,286047002.6,N
1575960736.0,286047002.6,N
1575960755.8,286047002.6,N
1575960775.7,286047001.7,N
1575960795.5,286047004.2,Y
1575960815.4,286047000.8,P
1575960835.2,286047001.0,N
1575960855.0,286047000.4,N
1575960855.9,286047000.4,N
1575960875.8,286047000.8,N
1575960895.6,286046999.9,N
1575960915.4,286047000.9,N
1575960935.3,286046998.3,N
1575960955.1,286047000.2,N
1575960975.9,286047000.5,N
1575960995.7,286047002.1,N
1575961015.5,286046999.9,N
1575961035.4,286047004.1,Y
1575961055.2,286047004.1,P
1575961075.0,286047003.9,N
1575961075.9,286047003.9,N
1575961095.8,286047004.4,Y
1575961115.6,286047000.5,P
1575961135.5,286046999.2,N
1575961155.3,286046997.3,N
1575961175.1,286046996.8,N
1575961195.9,286046997.1,N
